TimeEDT,TemperatureF,Dew PointF,Humidity,Sea Level PressureIn,VisibilityMPH,Wind Direction,Wind SpeedMPH,Gust SpeedMPH,PrecipitationIn,Events,Conditions,WindDirDegrees,DateUTC
12:15 AM,10.0,-5.6,49,30.28,10.0,Calm,Calm,-,N/A,,Clear,0,2013-03-18 04:15:00
12:35 AM,8.2,-5.1,55,30.28,10.0,Calm,Calm,-,N/A,,Clear,0,2013-03-18 04:35:00
12:55 AM,10.6,-5.8,48,30.30,10.0,Calm,Calm,-,N/A,,Clear,0,2013-03-18 04:55:00
1:15 AM,9.3,-5.6,51,30.31,10.0,Calm,Calm,-,N/A,,Clear,0,2013-03-18 05:15:00
1:35 AM,7.5,-4.0,59,30.31,10.0,Calm,Calm,-,N/A,,Clear,0,2013-03-18 05:35:00
1:55 AM,8.2,-4.9,55,30.31,10.0,Calm,Calm,-,N/A,,Clear,0,2013-03-18 05:55:00
2:15 AM,4.6,-2.9,71,30.32,10.0,Calm,Calm,-,N/A,,Clear,0,2013-03-18 06:15:00
2:35 AM,5.0,-4.0,66,30.32,10.0,Calm,Calm,-,N/A,,Clear,0,2013-03-18 06:35:00
2:55 AM,6.1,-4.2,63,30.32,10.0,Calm,Calm,-,N/A,,Clear,0,2013-03-18 06:55:00
3:15 AM,4.1,-4.2,69,30.31,10.0,Calm,Calm,-,N/A,,Clear,0,2013-03-18 07:15:00
3:35 AM,2.8,-4.9,70,30.31,10.0,Calm,Calm,-,N/A,,Clear,0,2013-03-18 07:35:00
3:55 AM,2.8,-4.7,71,30.30,10.0,Calm,Calm,-,N/A,,Clear,0,2013-03-18 07:55:00
4:15 AM,4.3,-4.7,66,30.31,10.0,Calm,Calm,-,N/A,,Clear,0,2013-03-18 08:15:00
4:35 AM,2.8,-4.5,71,30.31,10.0,Calm,Calm,-,N/A,,Clear,0,2013-03-18 08:35:00
4:55 AM,2.3,-3.8,76,30.32,10.0,Calm,Calm,-,N/A,,Clear,0,2013-03-18 08:55:00
5:15 AM,1.2,-4.0,79,30.33,10.0,Calm,Calm,-,N/A,,Clear,0,2013-03-18 09:15:00
5:35 AM,0.5,-4.0,81,30.34,10.0,Calm,Calm,-,N/A,,Clear,0,2013-03-18 09:35:00
5:55 AM,2.1,-3.6,77,30.34,10.0,Calm,Calm,-,N/A,,Clear,0,2013-03-18 09:55:00
6:15 AM,0.7,-4.9,77,30.35,10.0,Calm,Calm,-,N/A,,Clear,0,2013-03-18 10:15:00
6:35 AM,1.4,-4.2,77,30.36,10.0,Calm,Calm,-,N/A,,Clear,0,2013-03-18 10:35:00
7:15 AM,0.3,-5.1,78,30.37,10.0,Calm,Calm,-,N/A,,Clear,0,2013-03-18 11:15:00
7:35 AM,2.3,-4.0,75,30.37,10.0,Calm,Calm,-,N/A,,Clear,0,2013-03-18 11:35:00
7:55 AM,3.6,-2.9,74,30.38,10.0,Calm,Calm,-,N/A,,Clear,0,2013-03-18 11:55:00
8:15 AM,5.5,-2.2,70,30.38,10.0,Calm,Calm,-,N/A,,Clear,0,2013-03-18 12:15:00
8:35 AM,6.8,-1.3,69,30.38,10.0,Calm,Calm,-,N/A,,Clear,0,2013-03-18 12:35:00
8:55 AM,8.6,-0.4,67,30.38,10.0,Calm,Calm,-,N/A,,Clear,0,2013-03-18 12:55:00
9:15 AM,11.1,-0.0,61,30.39,10.0,Calm,Calm,-,N/A,,Clear,0,2013-03-18 13:15:00
9:35 AM,13.8,0.9,56,30.39,10.0,Calm,Calm,-,N/A,,Clear,0,2013-03-18 13:35:00
9:55 AM,15.4,1.6,54,30.38,10.0,Calm,Calm,-,N/A,,Clear,0,2013-03-18 13:55:00
10:15 AM,17.4,-0.6,45,30.38,10.0,Calm,Calm,-,N/A,,Clear,0,2013-03-18 14:15:00
10:35 AM,19.2,-1.7,40,30.39,10.0,Calm,Calm,-,N/A,,Clear,0,2013-03-18 14:35:00
10:55 AM,19.9,-3.1,36,30.38,10.0,WSW,5.8,-,N/A,,Clear,240,2013-03-18 14:55:00
11:15 AM,20.8,-4.4,33,30.38,10.0,Calm,Calm,-,N/A,,Clear,0,2013-03-18 15:15:00
11:35 AM,21.9,-2.2,35,30.37,10.0,SSW,6.9,-,N/A,,Clear,210,2013-03-18 15:35:00
11:55 AM,23.0,-1.7,34,30.37,10.0,ESE,4.6,-,N/A,,Clear,120,2013-03-18 15:55:00
12:15 PM,24.1,-2.0,32,30.37,10.0,SSW,5.8,-,N/A,,Clear,200,2013-03-18 16:15:00
12:35 PM,25.0,-2.7,30,30.36,10.0,West,3.5,-,N/A,,Clear,260,2013-03-18 16:35:00
12:55 PM,26.1,-1.8,30,30.35,10.0,East,4.6,-,N/A,,Clear,80,2013-03-18 16:55:00
1:15 PM,26.8,-1.8,29,30.34,10.0,NE,4.6,-,N/A,,Clear,50,2013-03-18 17:15:00
1:35 PM,28.4,-1.7,27,30.33,10.0,Calm,Calm,-,N/A,,Clear,0,2013-03-18 17:35:00
1:55 PM,28.6,-3.6,25,30.31,10.0,Calm,Calm,-,N/A,,Clear,0,2013-03-18 17:55:00
2:15 PM,29.1,-3.5,24,30.30,10.0,Calm,Calm,-,N/A,,Clear,0,2013-03-18 18:15:00
2:35 PM,29.1,-4.4,23,30.30,10.0,Calm,Calm,-,N/A,,Clear,0,2013-03-18 18:35:00
2:55 PM,30.4,-4.7,22,30.29,10.0,Calm,Calm,-,N/A,,Clear,0,2013-03-18 18:55:00
3:15 PM,30.9,-2.6,24,30.27,10.0,SE,4.6,-,N/A,,Clear,130,2013-03-18 19:15:00
3:35 PM,31.5,-3.3,22,30.26,10.0,SE,3.5,-,N/A,,Clear,130,2013-03-18 19:35:00
3:55 PM,31.1,-4.5,22,30.26,10.0,Calm,Calm,-,N/A,,Clear,0,2013-03-18 19:55:00
4:15 PM,30.7,-6.9,20,30.25,10.0,Calm,Calm,-,N/A,,Clear,0,2013-03-18 20:15:00
4:35 PM,30.7,-7.8,19,30.24,10.0,Calm,Calm,-,N/A,,Clear,0,2013-03-18 20:35:00
4:55 PM,31.1,-7.6,19,30.24,10.0,Calm,Calm,-,N/A,,Clear,0,2013-03-18 20:55:00
5:15 PM,30.9,-4.7,21,30.23,10.0,Calm,Calm,-,N/A,,Clear,0,2013-03-18 21:15:00
5:35 PM,30.4,-6.0,21,30.22,10.0,Calm,Calm,-,N/A,,Clear,0,2013-03-18 21:35:00
5:55 PM,30.2,-3.5,23,30.22,10.0,SSW,3.5,-,N/A,,Clear,210,2013-03-18 21:55:00
6:15 PM,30.2,-3.5,23,30.21,10.0,SSW,3.5,-,N/A,,Clear,200,2013-03-18 22:15:00
6:35 PM,29.8,-4.9,22,30.20,10.0,Calm,Calm,-,N/A,,Clear,0,2013-03-18 22:35:00
6:55 PM,29.3,-6.0,22,30.20,10.0,Calm,Calm,-,N/A,,Clear,0,2013-03-18 22:55:00
7:15 PM,29.3,-7.1,21,30.19,10.0,Calm,Calm,-,N/A,,Clear,0,2013-03-18 23:15:00
7:35 PM,28.2,-1.7,28,30.18,10.0,Calm,Calm,-,N/A,,Clear,0,2013-03-18 23:35:00
7:55 PM,28.4,-2.9,26,30.18,10.0,Calm,Calm,-,N/A,,Clear,0,2013-03-18 23:55:00
8:15 PM,28.6,-4.4,24,30.19,10.0,Calm,Calm,-,N/A,,Clear,0,2013-03-19 00:15:00
8:35 PM,28.2,-2.6,26,30.19,10.0,Calm,Calm,-,N/A,,Clear,0,2013-03-19 00:35:00
8:55 PM,28.2,-3.5,25,30.19,10.0,Calm,Calm,-,N/A,,Clear,0,2013-03-19 00:55:00
9:15 PM,27.5,-2.2,28,30.18,10.0,Calm,Calm,-,N/A,,Clear,0,2013-03-19 01:15:00
9:35 PM,26.6,1.4,34,30.17,10.0,Calm,Calm,-,N/A,,Clear,0,2013-03-19 01:35:00
9:55 PM,27.3,-0.0,31,30.18,10.0,Calm,Calm,-,N/A,,Clear,0,2013-03-19 01:55:00
10:15 PM,27.9,-1.8,28,30.18,10.0,Calm,Calm,-,N/A,,Mostly Cloudy,0,2013-03-19 02:15:00
10:35 PM,27.9,-0.9,29,30.16,10.0,Calm,Calm,-,N/A,,Overcast,0,2013-03-19 02:35:00
10:55 PM,27.3,2.8,35,30.15,10.0,Calm,Calm,-,N/A,,Overcast,0,2013-03-19 02:55:00
11:15 PM,27.3,1.0,32,30.14,10.0,Calm,Calm,-,N/A,,Overcast,0,2013-03-19 03:15:00
11:35 PM,27.5,3.6,36,30.13,10.0,Calm,Calm,-,N/A,,Overcast,0,2013-03-19 03:35:00
11:55 PM,27.3,2.3,34,30.12,10.0,SSE,3.5,-,N/A,,Mostly Cloudy,150,2013-03-19 03:55:00